Flag for Cabo Verde Weather past 2 weeks in Mindelo, Cabo Verde

Now
82 °F

Passing clouds.


Feels Like: 89 °F
Forecast: N/A
Wind: 5 mph from Southwest

Location: Dakar / Yoff

Current Time: Aug 31, 2015 at 9:52:14 PM

Latest Report: Aug 31, 2015 at 8:30 PM


Visibility: N/A

Pressure: 29.98 "Hg

Humidity: 79%

Dew point: 75 °F

Location of MindeloLocation

Historic Weather in Mindelo — Graph

°F

Mindelo temperature yesterday

Maximum temperature yesterday: 86 °F (at 12:30 PM)
Minimum temperature yesterday: 79 °F (at 2:30 AM)
Average temperature yesterday: 82 °F

Past Weeks' High & Low Weather Summary

 TemperatureHumidityPressure
High90 °F (Aug 27, 11:00 AM)100% (Aug 18, 6:30 AM)30.01 "Hg (Aug 18, 6:30 AM)
Low75 °F (Aug 17, 8:30 AM)62% (Aug 17, 3:00 PM)29.77 "Hg (Aug 20, 4:30 PM)
Average82 °F84%29.87 "Hg
* Reported Aug 16 8:00 PM — Aug 31 8:30 PM, Mindelo, Weather by CustomWeather, © 2015

Note: Actual official high and low records may vary slightly from our data, if they occured in-between our weather recording intervals... More about our weather records

Advertising

Mindelo weather history for previous 24 hours

 ConditionsComfort  
Time TempWeatherWind HumidityBarometerVisibility
8:30 PM
Mon, Aug 31
82 °FPassing clouds.5 mph79%29.98 "HgN/A
8:00 PM82 °FPassing clouds.6 mph79%29.95 "HgN/A
7:30 PM82 °FPassing clouds.6 mph79%29.95 "HgN/A
7:00 PM82 °FPassing clouds.7 mph79%29.95 "HgN/A
6:30 PM82 °FPassing clouds.7 mph79%29.95 "HgN/A
6:00 PM82 °FScattered clouds.8 mph79%29.95 "HgN/A
5:30 PM84 °FScattered clouds.8 mph74%29.95 "HgN/A
5:00 PM84 °FScattered clouds.9 mph74%29.92 "HgN/A
4:30 PM84 °FScattered clouds.9 mph74%29.92 "HgN/A
4:00 PM84 °FScattered clouds.10 mph74%29.92 "HgN/A
3:30 PM84 °FScattered clouds.12 mph74%29.92 "HgN/A
3:00 PM84 °FScattered clouds.10 mph74%29.92 "HgN/A
2:30 PM86 °FScattered clouds.12 mph70%29.95 "HgN/A
2:00 PM86 °FScattered clouds.10 mph70%29.95 "HgN/A
1:30 PM86 °FScattered clouds.12 mph70%29.95 "HgN/A
1:00 PM86 °FScattered clouds.13 mph75%29.95 "HgN/A
12:30 PM84 °FScattered clouds.13 mph79%29.98 "HgN/A
12:00 PM86 °FBroken clouds.13 mph75%29.98 "HgN/A
11:30 AM84 °FBroken clouds.13 mph74%29.98 "HgN/A
11:00 AM84 °FBroken clouds.12 mph74%30.01 "HgN/A
10:30 AM84 °FBroken clouds.12 mph74%30.01 "HgN/A
10:00 AM84 °FBroken clouds.12 mph79%30.01 "HgN/A
9:30 AM82 °FBroken clouds.12 mph84%29.98 "HgN/A
9:00 AM82 °FBroken clouds.12 mph84%29.98 "HgN/A
8:30 AM82 °FBroken clouds.10 mph79%29.98 "HgN/A
8:00 AM82 °FBroken clouds.12 mph79%29.98 "HgN/A
7:30 AM81 °FBroken clouds.13 mph84%29.95 "HgN/A
7:00 AM81 °FPartly sunny.13 mph84%29.92 "HgN/A
6:30 AM81 °FBroken clouds.13 mph84%29.92 "HgN/A
6:00 AM81 °FPartly sunny.14 mph84%29.92 "HgN/A
5:30 AM81 °FPartly cloudy.14 mph84%29.89 "HgN/A
5:00 AM81 °FPassing clouds.14 mph84%29.89 "Hg5 mi
4:30 AM81 °FLight rain. Passing clouds.12 mph84%29.89 "Hg5 mi
4:00 AM81 °FPartly cloudy.12 mph84%29.92 "HgN/A
3:30 AM81 °FPartly cloudy.12 mph84%29.92 "HgN/A
3:00 AM79 °FPartly cloudy.13 mph89%29.92 "HgN/A
2:30 AM81 °FPartly cloudy.10 mph84%29.92 "HgN/A
2:00 AM81 °FPartly cloudy.12 mph84%29.92 "HgN/A
1:30 AM81 °FPartly cloudy.10 mph84%29.92 "HgN/A
1:00 AM79 °FLight rain. Passing clouds.12 mph89%29.95 "Hg5 mi
12:30 AM79 °FLight rain. Passing clouds.8 mph89%29.95 "Hg5 mi
12:00 AM81 °FLight rain. Partly cloudy.10 mph84%29.98 "Hg5 mi
11:30 PM
Sun, Aug 30
81 °FLight rain. Partly cloudy.10 mph84%29.98 "Hg5 mi
11:00 PM81 °FPartly cloudy.9 mph84%29.98 "Hg5 mi
10:30 PM81 °FPartly cloudy.9 mph84%29.98 "Hg5 mi
10:00 PM81 °FLight rain. Partly cloudy.12 mph84%29.98 "Hg5 mi
9:30 PM81 °FLight rain. Partly cloudy.14 mph84%29.98 "Hg5 mi
9:00 PM81 °FLight rain. Partly cloudy.13 mph84%29.95 "Hg4 mi
Weather by CustomWeather, © 2015

See weather overviewHow to use our weather pages